North Adams, MA

5:43 AM EST on November 22, 2019 (GMT -0500)
Harriman And West

Weather History for KAQW - October, 2019

Change the Weather History Date:

Wednesday, October 23, 2019

  Actual Average Record
Temperature  
Mean Temperature 50 °F -  
Max Temperature 62 °F 54 °F 73 °F (2007)
Min Temperature 37 °F 34 °F 24 °F (2000)
Degree Days  
Heating Degree Days 16    
Moisture  
Dew Point 46 °F    
Average Humidity 82    
Maximum Humidity 94    
Minimum Humidity 41    
Precipitation  
Precipitation 0.28 in - - ()
Sea Level Pressure  
Sea Level Pressure 29.87 in    
Wind  
Wind Speed 5 mph ()    
Max Wind Speed 13 mph    
Max Gust Speed 26 mph    
Visibility 7.7 miles    
Events Rain    
Averages and records for this station are not official NWS values.
T = Trace of Precipitation, MM = Missing Value Source: Averaged Metar Reports

Daily Weather History Graph

Daily Weather History Graph

Search for Another Location

Airport or City:

Astronomy

Oct. 23, 2019 Rise Set
Actual Time 7:15 AM EDT 5:58 PM EDT
Civil Twilight 6:46 AM EDT 6:27 PM EDT
Nautical Twilight 6:13 AM EDT 6:59 PM EDT
Astronomical Twilight 5:40 AM EDT 7:32 PM EDT
Moon 1:20 AM EDT (10/23) 3:56 PM EDT (10/23)
Length of Visible Light 11h 40m
Length of Day
10h 43m
Waning Crescent, 27% of the Moon is Illuminated
Oct 23
Waning Crescent
Oct 27
New
Nov 4
First Quarter
Nov 12
Full
Nov 19
Last Quarter

Hourly Weather History & Observations

Time (EDT) Temp. Dew Point Humidity Pressure Visibility Wind Dir Wind Speed Gust Speed Precip Events Conditions
12:52 AM 53.1 °F 48.9 °F 86% 29.81 in 10.0 mi East 6.9 mph - 0.02 in   Overcast
1:41 AM 53.1 °F 50.0 °F 89% 29.79 in 2.5 mi Variable 4.6 mph - 0.02 in Rain Rain
1:52 AM 53.1 °F 50.0 °F 89% 29.81 in 2.5 mi NE 8.1 mph - 0.03 in Rain Light Rain
1:57 AM 53.1 °F 50.0 °F 89% 29.80 in 3.0 mi Variable 4.6 mph - 0.01 in Rain Light Rain
2:13 AM 53.1 °F 51.1 °F 93% 29.82 in 2.0 mi Calm Calm - 0.05 in Rain Heavy Rain
2:36 AM 53.1 °F 51.1 °F 93% 29.83 in 2.0 mi West 4.6 mph - 0.10 in Rain Rain
2:43 AM 53.1 °F 51.1 °F 93% 29.83 in 2.0 mi West 4.6 mph - 0.12 in Rain Rain
2:48 AM 53.6 °F 51.8 °F 94% 29.82 in 2.0 mi WSW 4.6 mph - 0.14 in Rain Rain
2:52 AM 53.1 °F 51.1 °F 93% 29.83 in 1.8 mi WSW 4.6 mph - 0.15 in Rain Rain
3:02 AM 53.1 °F 51.1 °F 93% 29.82 in 2.0 mi SW 5.8 mph - 0.02 in Rain Rain
3:15 AM 53.1 °F 51.1 °F 93% 29.81 in 3.0 mi SW 3.5 mph - 0.03 in Rain Light Rain
3:33 AM 53.1 °F 51.1 °F 93% 29.82 in 2.5 mi West 8.1 mph - 0.05 in Rain Rain
3:52 AM 53.1 °F 51.1 °F 93% 29.83 in 5.0 mi West 4.6 mph - 0.07 in Rain Light Rain
4:41 AM 52.0 °F 48.9 °F 89% 29.82 in 10.0 mi SW 8.1 mph - 0.01 in   Overcast
4:52 AM 52.0 °F 48.9 °F 89% 29.83 in 10.0 mi WSW 6.9 mph - 0.01 in Rain Light Rain
5:30 AM 52.0 °F 48.9 °F 89% 29.82 in 10.0 mi WSW 6.9 mph - 0.00 in   Overcast
5:52 AM 52.0 °F 48.9 °F 89% 29.82 in 10.0 mi SW 9.2 mph - 0.00 in   Overcast
6:52 AM 52.0 °F 48.9 °F 89% 29.82 in 10.0 mi WSW 6.9 mph - N/A   Overcast
7:40 AM 50.0 °F 48.0 °F 93% 29.82 in 10.0 mi WSW 5.8 mph - N/A   Scattered Clouds
7:52 AM 51.1 °F 48.0 °F 89% 29.83 in 10.0 mi West 6.9 mph - N/A   Partly Cloudy
8:08 AM 52.0 °F 48.9 °F 89% 29.83 in 10.0 mi West 8.1 mph - N/A   Mostly Cloudy
8:34 AM 51.1 °F 48.9 °F 92% 29.84 in 10.0 mi NW 3.5 mph - N/A   Overcast
8:52 AM 52.0 °F 48.9 °F 89% 29.85 in 10.0 mi Calm Calm - N/A   Overcast
9:14 AM 52.0 °F 48.0 °F 86% 29.85 in 10.0 mi West 5.8 mph - N/A   Mostly Cloudy
9:29 AM 52.0 °F 48.9 °F 89% 29.85 in 10.0 mi West 4.6 mph - N/A   Scattered Clouds
9:38 AM 55.0 °F 50.0 °F 83% 29.85 in 10.0 mi Variable 4.6 mph - N/A   Partly Cloudy
9:52 AM 55.9 °F 48.9 °F 77% 29.87 in 10.0 mi West 10.4 mph - N/A   Partly Cloudy
10:31 AM 55.9 °F 48.9 °F 77% 29.87 in 10.0 mi Variable 5.8 mph - N/A   Mostly Cloudy
10:52 AM 57.9 °F 46.0 °F 65% 29.88 in 10.0 mi West 5.8 mph 16.1 mph N/A   Mostly Cloudy
12:52 PM 57.9 °F 37.0 °F 46% 29.89 in 10.0 mi WNW 11.5 mph 26.5 mph N/A   Partly Cloudy
2:52 PM 60.1 °F 36.0 °F 41% 29.90 in 10.0 mi WSW 12.7 mph 24.2 mph N/A   Mostly Cloudy
3:52 PM 59.0 °F 37.0 °F 44% 29.91 in 10.0 mi Variable 5.8 mph 18.4 mph N/A   Mostly Cloudy
4:52 PM 59.0 °F 36.0 °F 42% 29.94 in 10.0 mi West 11.5 mph 17.3 mph N/A   Partly Cloudy
5:52 PM 54.0 °F 37.0 °F 53% 29.98 in 10.0 mi West 6.9 mph - N/A   Clear
6:52 PM 48.9 °F 37.0 °F 64% 30.02 in 10.0 mi West 3.5 mph - N/A   Clear
7:52 PM 44.1 °F 37.9 °F 79% 30.05 in 10.0 mi Calm Calm - N/A   Clear
8:52 PM 41.0 °F 37.0 °F 86% 30.08 in 10.0 mi Calm Calm - N/A   Clear
10:52 PM 39.0 °F 35.1 °F 86% 30.13 in 10.0 mi Calm Calm - N/A   Clear
11:52 PM 37.0 °F 34.0 °F 89% 30.14 in 10.0 mi Calm Calm - N/A   Clear